Overview Statistics Trail Chart Weather Telemetry Raw packets
 

This is the latest recevied weather packets stored in our database for station/object CE3TDM-10. If no packets are shown the sender has not sent any weather packets the latest 10 day(s).

<< 11 12 13 14 15 16 17 >>
Time Temp. Humidity Pressure Rain* Wind** Luminosity Snow
1788262313 28.89° C 29% 924.8 hPa - - - -
1788261531 29.44° C 29% 924.7 hPa - - - -
1788261413 29.44° C 29% 924.7 hPa - - - -
1788260513 29.44° C 29% 924.6 hPa - - - -
1788259612 29.44° C 30% 924.8 hPa - - - -
1788258712 28.33° C 32% 924.6 hPa - - - -
1788257812 22.22° C 36% 924.7 hPa - - - -
1788256928 22.22° C 36% 924.8 hPa - - - -
1788253312 22.78° C 36% 924.6 hPa - - - -
1788250612 22.78° C 35% 925.1 hPa - - - -
1788249712 22.78° C 36% 925.1 hPa - - - -
1788248812 22.78° C 35% 925 hPa - - - -
1788247912 22.78° C 36% 925.2 hPa - - - -
1788247011 22.78° C 35% 925.1 hPa - - - -
1788243600 23.33° C 35% 925.8 hPa - - - -
1788243414 23.33° C 35% 925.8 hPa - - - -
1788239811 23.33° C 35% 926.4 hPa - - - -
1788238011 23.89° C 35% 926.3 hPa - - - -
1788237113 23.89° C 35% 926.1 hPa - - - -
1788235310 23.89° C 34% 926.7 hPa - - - -
1788234410 23.89° C 34% 926.7 hPa - - - -
1788233510 24.44° C 34% 926.9 hPa - - - -
1788231710 25° C 34% 927 hPa - - - -
1788230810 25° C 34% 926.7 hPa - - - -
1788229910 25.56° C 34% 926.5 hPa - - - -

* Rain since midnight (hover to see other rain measurements)
** Current wind speed in m/s (hover to see current wind gust speed)